Regional Weather Roundup
Issued by NWS Raleigh/Durham, NC

Home | Current Version | Previous Version | Text Only | Print | Product List | Glossary On
Versions: 1 2 3 4 5 6 7 8 9 10 11 12 13 14 15 16 17 18 19 20 21 22 23 24 25 26 27
000
ASUS42 KRAH 260910
RWRRAH
NORTH CAROLINA WEATHER ROUNDUP
NATIONAL WEATHER SERVICE RALEIGH NC
500 AM EDT MON JUN 26 2017

NOTE: "FAIR" INDICATES FEW OR NO CLOUDS BELOW 12,000 FEET WITH NO
SIGNIFICANT WEATHER AND/OR OBSTRUCTIONS TO VISIBILITY.

NCZ001-053-055-056-065-067-261000-
WESTERN NORTH CAROLINA

CITY           SKY/WX    TMP DP  RH WIND       PRES   REMARKS
ASHEVILLE      CLEAR     53  50  89 NW6       30.22S
JEFFERSON      CLEAR     59  42  52 W10       30.21S
HICKORY        CLEAR     58  56  93 N6        30.15S
RUTHERFORDTON  NOT AVBL
MOUNT AIRY     CLEAR     55  50  84 CALM      30.17S
BOONE          NOT AVBL
$$

NCZ021-022-025-041-071-084-088-261000-
CENTRAL NORTH CAROLINA

CITY           SKY/WX    TMP DP  RH WIND       PRES   REMARKS
CHARLOTTE      PTCLDY    62  59  90 NW3       30.13R
GREENSBORO     CLEAR     61  55  81 NW3       30.13S
WINSTON-SALEM  CLEAR     59  52  77 CALM      30.15S
RALEIGH-DURHAM PTCLDY    65  58  78 CALM      30.10S
FORT BRAGG     CLOUDY    69  61  75 N5        30.07F
FAYETTEVILLE   CLOUDY    73  61  65 N8        30.07S
BURLINGTON     CLEAR     61  56  83 NW6       30.11S
LAURINBURG     CLOUDY    71  63  75 N5        30.09S
$$

NCZ011-015-027-028-043-044-047-080-103-261000-
NORTHEASTERN NORTH CAROLINA

CITY           SKY/WX    TMP DP  RH WIND       PRES   REMARKS
ROCKY MT-WILSO PTCLDY    62  61  96 CALM      30.08S
GREENVILLE     PTCLDY    68  63  83 CALM      30.09S
WASHINGTON       N/A    N/A N/A N/A CALM      30.07S
ELIZABETH CITY CLOUDY    66  62  87 W5        30.05S
MANTEO         CLOUDY    75  61  60 N7        30.04S
CAPE HATTERAS  CLOUDY    78  60  53 VRB6      30.04S
$$

NCZ078-087-090-091-093-098-101-261000-
SOUTHEASTERN NORTH CAROLINA

CITY           SKY/WX    TMP DP  RH WIND       PRES   REMARKS
LUMBERTON      CLOUDY    73  67  81 N5        30.07S
GOLDSBORO      CLOUDY    70  65  84 N5        30.05F
KINSTON        CLOUDY    65  64  95 CALM      30.08S
KENANSVILLE    PTCLDY    70  66  88 N6        30.07S
NEW BERN       PTCLDY    70  65  84 N5        30.06F
CHERRY POINT   CLOUDY    74  64  71 N8        30.05F
BEAUFORT       PTCLDY    73  68  84 N6        30.04F
JACKSONVILLE   PTCLDY    73  68  84 N6        30.05S
WILMINGTON     CLOUDY    74  70  87 CALM      30.05S
$$





USA.gov is the U.S. government's official web portal to all federal, state and local government web resources and services.